[[{"header":{"parameterUnit":"m.s-1","parameterCategory":1,"la1":30.2991,"la2":30.254,"lo1":-89.0895,"lo2":-89.0444,"dy":0.0017,"dx":0.0017,"nx":28,"ny":28,"refTime":"2024-05-23T09:00:00:Z","depth":0,"parameterNumber":2,"parameterNumberName":"U-component_of_WINDS"},"data":[0,0,0,0,0,0,0,0,0,0,0,0,0,0,0,0,0,0,0,0,0,0,0,0,0,0,0,0,0,0,0,0,0,0,0,0,0,0,0,0,0,0,0,0,0,0,0,0,0,0,0,0,0,0,0,0,0,0,-1.3031,-1.3032,0,-1.3058,-1.3058,-1.3058,-1.3076,-1.3076,-1.3076,-1.3077,-1.3105,-1.3105,-1.3106,0,0,0,0,0,0,0,0,0,0,0,0,0,-1.2999,-1.2999,-1.3031,-1.3032,-1.3032,-1.3058,-1.3058,-1.3058,-1.3076,-1.3076,-1.3076,-1.3077,-1.3105,-1.3105,-1.3106,0,0,0,0,0,0,0,0,0,0,0,0,0,-1.3018,-1.2999,-1.3031,-1.3044,-1.3045,-1.3058,-1.3058,-1.3058,-1.3076,-1.3076,-1.3077,-1.3077,-1.3104,-1.3105,-1.3106,-1.3108,0,0,-1.3109,-1.3109,0,0,0,0,0,0,0,0,-1.3017,-1.3019,-1.3042,-1.3043,-1.3045,-1.3064,-1.3057,-1.3075,-1.3076,-1.3065,-1.3077,-1.3077,-1.3091,-1.3093,-1.3098,-1.311,-1.3111,-1.3109,-1.311,-1.311,-1.311,0,0,0,0,0,0,0,-1.3015,-1.3018,-1.3042,-1.3042,-1.3044,-1.3049,-1.3052,-1.306,-1.3076,-1.3066,-1.3067,-1.307,-1.3092,-1.3097,-1.3098,-1.3111,-1.3109,-1.311,-1.3111,-1.3111,-1.3127,-1.3127,0,0,0,0,0,0,-1.3012,-1.3017,-1.3041,-1.3043,-1.3031,-1.3049,-1.3053,-1.3058,-1.3076,-1.3079,-1.3069,-1.307,-1.3095,-1.3097,-1.31,-1.3104,-1.311,-1.3111,-1.3112,-1.3128,-1.3127,-1.3127,0,0,0,0,0,0,-1.3011,-1.3014,-1.304,-1.303,-1.3034,-1.305,-1.3055,-1.3058,-1.3063,-1.3079,-1.3083,-1.3071,-1.3095,-1.3098,-1.3106,-1.3105,-1.3111,-1.3112,-1.3128,-1.3128,-1.3127,-1.3112,0,0,0,0,0,0,-1.301,-1.3013,-1.3014,-1.303,-1.3034,-1.3045,-1.3055,-1.3058,-1.3064,-1.3066,-1.3082,-1.3085,-1.3096,-1.3105,-1.3107,-1.3106,-1.3113,-1.3128,-1.3128,-1.3127,-1.3113,-1.3111,-1.311,0,0,0,0,0,-1.3009,-1.3008,-1.3014,-1.3016,-1.3035,-1.3045,-1.3048,-1.306,-1.3064,-1.3065,-1.3076,-1.3084,-1.3105,-1.3105,-1.3108,-1.3108,-1.3128,-1.3128,-1.3127,-1.3113,-1.3111,-1.311,0,0,0,0,0,0,-1.2992,-1.3011,-1.3017,-1.3021,-1.3032,-1.3048,-1.305,-1.3058,-1.3067,-1.3068,-1.3083,-1.3087,-1.3093,-1.3101,-1.3102,-1.3112,-1.3118,-1.3118,-1.3106,-1.3104,-1.3103,-1.3101,-1.3114,0,0,0,0,0,-1.2989,-1.2995,-1.3011,-1.3014,-1.3019,-1.3033,-1.3038,-1.3047,-1.3058,-1.3062,-1.3074,-1.3085,-1.3094,-1.31,-1.3109,-1.3114,-1.3118,-1.3115,-1.3114,-1.3113,-1.3113,-1.3117,-1.3116,-1.3126,-1.3126,-1.3126,0,0,-1.2982,-1.2993,-1.2996,-1.3011,-1.302,-1.3027,-1.3037,-1.3043,-1.3049,-1.3064,-1.3072,-1.3081,-1.3094,-1.3101,-1.3105,-1.3108,-1.3111,-1.3113,-1.3112,-1.3112,-1.3117,-1.3116,-1.3115,-1.3126,-1.3126,-1.3126,0,0,-1.2974,-1.2982,-1.2986,-1.2995,-1.3008,-1.3018,-1.3019,-1.3034,-1.3041,-1.3049,-1.3061,-1.3068,-1.3083,-1.3092,-1.3099,-1.3096,-1.3104,-1.3098,-1.3091,-1.3095,-1.3095,-1.3094,-1.3093,-1.3093,-1.3098,-1.3098,-1.3098,0,-1.2964,-1.2974,-1.2987,-1.2993,-1.2999,-1.3013,-1.3017,-1.3025,-1.3041,-1.3046,-1.3049,-1.3069,-1.3079,-1.3089,-1.3088,-1.3093,-1.3095,-1.3096,-1.3094,-1.3093,-1.3093,-1.3092,-1.3092,-1.3097,-1.3098,-1.3098,-1.3098,0,-1.2962,-1.2969,-1.297,-1.2985,-1.2991,-1.2996,-1.3011,-1.3016,-1.3025,-1.3034,-1.3043,-1.3056,-1.3069,-1.3072,-1.308,-1.3083,-1.3084,-1.3091,-1.3097,-1.3091,-1.3091,-1.3091,-1.3096,-1.3097,-1.3097,-1.3097,0,0,-1.2942,-1.2965,-1.2965,-1.2972,-1.2988,-1.2994,-1.3001,-1.3013,-1.3017,-1.3028,-1.3034,-1.3047,-1.3053,-1.3061,-1.3071,-1.3074,-1.3071,-1.308,-1.3081,-1.3078,-1.3076,-1.3071,-1.3071,-1.3077,-1.3077,-1.3077,-1.3075,0,-1.2937,-1.2948,-1.296,-1.2967,-1.2974,-1.2988,-1.2994,-1.3005,-1.3015,-1.3023,-1.3034,-1.3043,-1.305,-1.3055,-1.3059,-1.3071,-1.3071,-1.3071,-1.3084,-1.3084,-1.308,-1.3071,-1.3065,-1.3062,-1.3075,-1.3075,-1.3075,0,-1.2931,-1.2941,-1.2949,-1.2965,-1.2968,-1.2973,-1.2986,-1.2993,-1.3006,-1.3013,-1.3022,-1.3032,-1.3041,-1.3047,-1.3059,-1.3058,-1.3065,-1.3071,-1.3072,-1.3073,-1.3079,-1.3072,-1.3062,-1.3061,-1.3075,-1.3075,-1.3075,0,-1.2916,-1.2932,-1.2939,-1.2944,-1.2964,-1.2967,-1.2975,-1.2989,-1.2995,-1.3006,-1.3011,-1.3023,-1.303,-1.304,-1.3053,-1.3056,-1.3064,-1.3071,-1.3071,-1.307,-1.3072,-1.3071,-1.3062,-1.3075,-1.3075,-1.3076,-1.3076,0,-1.2908,-1.2913,-1.2933,-1.2937,-1.2942,-1.2957,-1.2963,-1.2972,-1.2984,-1.2991,-1.3004,-1.3011,-1.3029,-1.3038,-1.3049,-1.3057,-1.306,-1.3067,-1.3069,-1.3065,-1.3065,-1.3069,-1.307,-1.3075,-1.3075,-1.3075,-1.3075,0,-1.2893,-1.2906,-1.2915,-1.2932,-1.2937,-1.2941,-1.2956,-1.2961,-1.2972,-1.2981,-1.2984,-1.3001,-1.3012,-1.3027,-1.3043,-1.305,-1.3058,-1.3062,-1.3053,-1.3055,-1.3054,-1.3054,-1.3048,-1.3048,-1.3061,-1.3061,-1.306,0,-1.2887,-1.2891,-1.2909,-1.2914,-1.2922,-1.293,-1.2937,-1.2953,-1.2959,-1.2976,-1.2979,-1.2991,-1.3002,-1.3019,-1.3034,-1.3046,-1.3051,-1.3048,-1.3053,-1.3049,-1.3051,-1.3051,-1.3052,-1.3047,-1.3047,-1.3046,-1.3046,0,-1.2875,-1.2882,-1.2891,-1.2903,-1.291,-1.2921,-1.2931,-1.2935,-1.2953,-1.296,-1.2972,-1.298,-1.2996,-1.3009,-1.3023,-1.3033,-1.3043,-1.3045,-1.3045,-1.3041,-1.3036,-1.3039,-1.305,-1.3045,-1.3045,-1.3045,-1.3045,-1.3045,-1.2864,-1.2868,-1.2882,-1.2892,-1.2902,-1.2912,-1.2918,-1.2929,-1.2939,-1.2953,-1.2962,-1.2973,-1.2988,-1.3009,-1.3018,-1.3028,-1.3031,-1.3032,-1.3032,-1.3032,-1.3031,-1.3034,-1.303,-1.303,-1.303,-1.3031,-1.3031,0,-1.2853,-1.2863,-1.2872,-1.2886,-1.2895,-1.2903,-1.2916,-1.2922,-1.2932,-1.2945,-1.2955,-1.2969,-1.2981,-1.2996,-1.301,-1.3015,-1.302,-1.3018,-1.3018,-1.302,-1.3027,-1.3025,-1.3014,-1.3014,-1.3014,-1.3014,-1.3014,-1.3014,-1.2848,-1.2856,-1.2864,-1.2877,-1.2887,-1.2898,-1.2905,-1.2915,-1.2925,-1.2939,-1.2949,-1.2959,-1.2974,-1.2988,-1.3001,-1.3005,-1.301,-1.3006,-1.3012,-1.3018,-1.302,-1.3021,-1.3019,-1.3007,-1.3007,-1.3005,-1.3004,-1.3004]},{"header":{"parameterUnit":"m.s-1","parameterCategory":1,"la1":30.2991,"la2":30.254,"lo1":-89.0895,"lo2":-89.0444,"dy":0.0017,"dx":0.0017,"nx":28,"ny":28,"refTime":"2024-05-23T09:00:00:Z","depth":0,"parameterNumber":3,"parameterNumberName":"V-component_of_WINDS"},"data":[0,0,0,0,0,0,0,0,0,0,0,0,0,0,0,0,0,0,0,0,0,0,0,0,0,0,0,0,0,0,0,0,0,0,0,0,0,0,0,0,0,0,0,0,0,0,0,0,0,0,0,0,0,0,0,0,0,0,4.0612,4.0612,0,4.0659,4.0659,4.066,4.0661,4.066,4.066,4.0659,4.0705,4.0707,4.0709,0,0,0,0,0,0,0,0,0,0,0,0,0,4.0521,4.0523,4.0612,4.0612,4.0613,4.0659,4.0659,4.066,4.0661,4.066,4.0659,4.0659,4.0705,4.0707,4.0709,0,0,0,0,0,0,0,0,0,0,0,0,0,4.0563,4.0523,4.0612,4.0619,4.062,4.0659,4.0659,4.066,4.0661,4.066,4.0659,4.0659,4.0704,4.0706,4.0709,4.0743,0,0,4.0717,4.0718,0,0,0,0,0,0,0,0,4.0561,4.0567,4.0617,4.0618,4.062,4.0653,4.0644,4.0688,4.0661,4.0645,4.0659,4.0658,4.0688,4.0692,4.0703,4.0745,4.0747,4.0717,4.0719,4.072,4.0721,0,0,0,0,0,0,0,4.0558,4.0565,4.063,4.0618,4.062,4.0619,4.0624,4.0652,4.0671,4.0647,4.0647,4.0653,4.0689,4.07,4.0704,4.0747,4.0717,4.072,4.0721,4.0722,4.082,4.0821,0,0,0,0,0,0,4.0554,4.0562,4.0629,4.0632,4.0588,4.0622,4.0627,4.0643,4.0671,4.0674,4.0653,4.0652,4.0696,4.0701,4.0706,4.0747,4.072,4.0723,4.0724,4.0819,4.082,4.0822,0,0,0,0,0,0,4.0552,4.056,4.0627,4.0597,4.0606,4.0624,4.0642,4.0645,4.0656,4.0676,4.0679,4.0662,4.0696,4.0702,4.0734,4.0749,4.0724,4.0726,4.0818,4.082,4.0821,4.0831,0,0,0,0,0,0,4.0549,4.0559,4.0572,4.0597,4.0607,4.0655,4.0643,4.0646,4.0661,4.066,4.0685,4.0688,4.0696,4.073,4.0736,4.0752,4.0728,4.0817,4.0819,4.082,4.0829,4.0832,4.0835,0,0,0,0,0,4.0546,4.0573,4.0573,4.0581,4.0624,4.0656,4.0661,4.067,4.0662,4.0675,4.0688,4.0687,4.0746,4.0733,4.074,4.0757,4.0816,4.0818,4.082,4.0828,4.0832,4.0835,0,0,0,0,0,0,4.0548,4.0576,4.0577,4.0612,4.0632,4.0656,4.0673,4.0674,4.0695,4.0694,4.0704,4.0709,4.0741,4.0752,4.0737,4.0792,4.078,4.0784,4.0783,4.0787,4.079,4.0787,4.073,0,0,0,0,0,4.0553,4.0576,4.0599,4.0628,4.0638,4.0654,4.0668,4.0673,4.0693,4.0701,4.0716,4.0736,4.0759,4.0773,4.0796,4.0831,4.0836,4.0846,4.0849,4.0851,4.0855,4.0875,4.0879,4.0829,4.0829,4.0829,0,0,4.0562,4.0581,4.0595,4.0629,4.0645,4.0669,4.0661,4.0686,4.0704,4.0705,4.0736,4.0748,4.077,4.0804,4.082,4.0814,4.087,4.0854,4.0856,4.0858,4.0878,4.0882,4.0887,4.0831,4.083,4.083,0,0,4.0592,4.0608,4.0635,4.0651,4.0675,4.0685,4.0692,4.0716,4.0724,4.0756,4.0758,4.0779,4.0818,4.0834,4.0847,4.0884,4.0884,4.0891,4.0907,4.0926,4.093,4.0934,4.0947,4.0952,4.0894,4.0894,4.0894,0,4.0601,4.0637,4.0648,4.0674,4.0689,4.0692,4.0719,4.0734,4.0764,4.0774,4.0768,4.0818,4.0833,4.0871,4.088,4.089,4.0898,4.0888,4.0929,4.0932,4.0936,4.0949,4.0954,4.0895,4.0895,4.0895,4.0895,0,4.0647,4.0673,4.0691,4.0721,4.0738,4.0764,4.0778,4.0794,4.0799,4.081,4.0842,4.086,4.0887,4.0896,4.09,4.0935,4.0931,4.0927,4.0915,4.0941,4.0954,4.0959,4.0896,4.0896,4.0895,4.0895,0,0,4.0679,4.0715,4.0721,4.0735,4.0763,4.0782,4.0809,4.0835,4.0849,4.087,4.0892,4.0926,4.0923,4.0938,4.0943,4.096,4.0989,4.0954,4.0955,4.096,4.1029,4.1032,4.1038,4.0989,4.099,4.0991,4.1028,0,4.0712,4.0759,4.077,4.0811,4.0834,4.0838,4.0861,4.088,4.0892,4.0913,4.0925,4.0949,4.0943,4.0952,4.0969,4.0982,4.1003,4.098,4.101,4.1011,4.1004,4.1045,4.1048,4.1081,4.1032,4.1033,4.1034,0,4.0756,4.0779,4.0823,4.0848,4.0858,4.0879,4.0905,4.0925,4.0947,4.0954,4.0971,4.0976,4.1003,4.099,4.1028,4.1012,4.1025,4.1034,4.1035,4.1038,4.1024,4.1049,4.1092,4.1097,4.1041,4.1041,4.104,0,4.0775,4.0817,4.0849,4.0861,4.089,4.0905,4.0918,4.0939,4.0955,4.0977,4.0987,4.1012,4.1026,4.1045,4.1056,4.1045,4.1093,4.1081,4.1099,4.1099,4.1109,4.1108,4.1155,4.1117,4.1117,4.1117,4.1117,0,4.0811,4.0838,4.0858,4.0877,4.0907,4.0919,4.0948,4.0961,4.098,4.1002,4.1006,4.1027,4.104,4.1062,4.1071,4.1101,4.1107,4.1113,4.1115,4.1113,4.1112,4.1122,4.112,4.1118,4.1118,4.1118,4.1118,0,4.0838,4.0852,4.0887,4.0913,4.092,4.0941,4.0963,4.0982,4.0994,4.1021,4.1028,4.1046,4.1073,4.1086,4.1118,4.1124,4.1159,4.1159,4.1151,4.1152,4.117,4.1168,4.1225,4.1233,4.1189,4.119,4.119,0,4.086,4.088,4.0909,4.0924,4.0938,4.0962,4.0979,4.0991,4.1008,4.1035,4.1051,4.1077,4.11,4.1142,4.1157,4.1182,4.1183,4.1202,4.1187,4.1185,4.1184,4.1183,4.1185,4.1204,4.1204,4.1205,4.1205,0,4.0897,4.0904,4.0927,4.0954,4.0973,4.0995,4.1016,4.1028,4.1043,4.1062,4.109,4.1107,4.1141,4.1167,4.1194,4.1207,4.1209,4.121,4.1215,4.1213,4.1208,4.1212,4.1159,4.1208,4.1208,4.1208,4.1207,4.1207,4.0922,4.0941,4.0964,4.0991,4.1008,4.1028,4.1047,4.1062,4.1085,4.1114,4.112,4.1149,4.1171,4.1207,4.1221,4.1244,4.124,4.1248,4.125,4.1252,4.1253,4.1205,4.1249,4.1249,4.1248,4.1248,4.1248,0,4.096,4.0976,4.1,4.103,4.1051,4.1051,4.1075,4.1092,4.1118,4.1139,4.1161,4.1193,4.1219,4.1237,4.1264,4.1278,4.128,4.1285,4.1284,4.1287,4.1255,4.1247,4.1283,4.1283,4.1283,4.1283,4.1283,4.1283,4.0983,4.1015,4.1024,4.1065,4.108,4.111,4.1123,4.1141,4.1158,4.1194,4.1216,4.1228,4.1247,4.1276,4.13,4.1304,4.1314,4.1319,4.1324,4.1293,4.1289,4.1286,4.1279,4.1321,4.1321,4.1354,4.1355,4.1355]}]]